<?xml version='1.0' encoding='UTF-8'?>
<gpx xmlns="http://www.topografix.com/GPX/1/1" creator="www.balnam.be" version="1.1" xmlns:xsi="http://www.w3.org/2001/XMLSchema-instance" xsi:schemaLocation="http://www.topografix.com/GPX/1/1 http://www.topografix.com/GPX/1/1/gpx.xsd">
<trk>
<name>hllhl11</name>
<cmt>v</cmt>
<desc>Haine-Saint-Paul Chemin n°11 </desc>
<link href="https://chemins.be/hainesaintpaul/chemin/11"/><trkseg>
<trkpt lat="50.456136" lon="4.188319"><time>2026-05-03T05:04:21Z</time></trkpt>
<trkpt lat="50.456098" lon="4.188141"><time>2026-05-03T05:14:21Z</time></trkpt>
<trkpt lat="50.456081" lon="4.188061"><time>2026-05-03T05:24:21Z</time></trkpt>
<trkpt lat="50.456022" lon="4.187805"><time>2026-05-03T05:34:21Z</time></trkpt>
<trkpt lat="50.456008" lon="4.187656"><time>2026-05-03T05:44:21Z</time></trkpt>
<trkpt lat="50.456003" lon="4.187496"><time>2026-05-03T05:54:21Z</time></trkpt>
<trkpt lat="50.456010" lon="4.187348"><time>2026-05-03T06:04:21Z</time></trkpt>
<trkpt lat="50.456032" lon="4.187162"><time>2026-05-03T06:14:21Z</time></trkpt>
<trkpt lat="50.456036" lon="4.187136"><time>2026-05-03T06:24:21Z</time></trkpt>
<trkpt lat="50.456098" lon="4.186747"><time>2026-05-03T06:34:21Z</time></trkpt>
<trkpt lat="50.456104" lon="4.186712"><time>2026-05-03T06:44:21Z</time></trkpt>
<trkpt lat="50.456199" lon="4.186206"><time>2026-05-03T06:54:21Z</time></trkpt>
<trkpt lat="50.456291" lon="4.185731"><time>2026-05-03T07:04:21Z</time></trkpt>
<trkpt lat="50.456337" lon="4.185497"><time>2026-05-03T07:14:21Z</time></trkpt>
<trkpt lat="50.456494" lon="4.184730"><time>2026-05-03T07:24:21Z</time></trkpt>
<trkpt lat="50.456503" lon="4.184683"><time>2026-05-03T07:34:21Z</time></trkpt>
<trkpt lat="50.456552" lon="4.184426"><time>2026-05-03T07:44:21Z</time></trkpt>
<trkpt lat="50.456612" lon="4.184114"><time>2026-05-03T07:54:21Z</time></trkpt>
<trkpt lat="50.456684" lon="4.183802"><time>2026-05-03T08:04:21Z</time></trkpt>
<trkpt lat="50.456849" lon="4.183549"><time>2026-05-03T08:14:21Z</time></trkpt>
<trkpt lat="50.457006" lon="4.183292"><time>2026-05-03T08:24:21Z</time></trkpt>
<trkpt lat="50.457119" lon="4.182863"><time>2026-05-03T08:34:21Z</time></trkpt>
<trkpt lat="50.457231" lon="4.182375"><time>2026-05-03T08:44:21Z</time></trkpt>
<trkpt lat="50.457268" lon="4.182167"><time>2026-05-03T08:54:21Z</time></trkpt>
<trkpt lat="50.457287" lon="4.182048"><time>2026-05-03T09:04:21Z</time></trkpt>
<trkpt lat="50.457302" lon="4.181921"><time>2026-05-03T09:14:21Z</time></trkpt>
<trkpt lat="50.457303" lon="4.181767"><time>2026-05-03T09:24:21Z</time></trkpt>
<trkpt lat="50.457301" lon="4.181748"><time>2026-05-03T09:34:21Z</time></trkpt>
<trkpt lat="50.457292" lon="4.181682"><time>2026-05-03T09:44:21Z</time></trkpt>
<trkpt lat="50.457260" lon="4.181556"><time>2026-05-03T09:54:21Z</time></trkpt>
<trkpt lat="50.457240" lon="4.181475"><time>2026-05-03T10:04:21Z</time></trkpt>
<trkpt lat="50.457187" lon="4.181371"><time>2026-05-03T10:14:21Z</time></trkpt>
<trkpt lat="50.457137" lon="4.181291"><time>2026-05-03T10:24:21Z</time></trkpt>
<trkpt lat="50.457077" lon="4.181238"><time>2026-05-03T10:34:21Z</time></trkpt>
</trkseg>
</trk>
</gpx>